Pickle Lake, Ontario

Past 24 Hour Conditions

Date / Time
(EST)
Conditions Temp
(°F)
Humidity
(%)
Dew Point
(°F)
Wind
(mph)
Pressure
(inches)
Visibility
(miles)
20 October 2014
21:00 N/A 34 98 33 NNE 4 30.2 N/A
20:00 N/A 34 98 34 NNE 2 30.2 N/A
19:00 N/A 35 97 34 NNE 5 30.2 N/A
18:00 N/A 35 97 35 NNE 4 30.2 N/A
17:00 N/A 36 94 34 NNE 3 30.2 N/A
16:00 N/A 37 90 34 NNE 5 30.1 N/A
15:00 N/A 36 94 34 NNE 5 30.1 N/A
14:00 N/A 36 97 35 NNE 5 30.1 N/A
13:00 N/A 35 96 34 NNE 5 30.1 N/A
12:00 N/A 35 93 34 NNE 7 30.1 N/A
11:00 N/A 35 96 34 NNE 5 30.1 N/A
10:00 N/A 34 98 33 NNE 5 30.0 N/A
9:00 N/A 33   98 33 NNE 6 30.0 N/A
8:00 N/A 34 97 33 NNE 5 30.0 N/A
7:00 N/A 34 97 33 NNE 4 30.0 N/A
6:00 N/A 35 96 34 NNE 4 29.9 N/A
5:00 N/A 36 96 35 NNE 7 29.9 N/A
4:00 N/A 36 97 35 NNE 7 29.9 N/A
3:00 N/A 37 95 36 NNE 8 29.9 N/A
2:00 N/A 38 95 37 NNE 6 29.9 N/A
1:00 N/A 39   98 39 NNE 5 29.8 N/A
00:00 N/A 39   100 39 NNE 5 29.8 N/A
19 October 2014
23:00 N/A 39   100 39 NNE 4 29.8 N/A
22:00 N/A 39   100 39 NNE 6 29.8 N/A
21:00 N/A 39   99 39 NNE 5 29.8 N/A
N/A Not available
↑ Highest temperature
↓ Lowest temperature

If you require additional historical weather information, please visit Climate Data Online.

Date modified: